Location: East Irvine
(33.6759°N, 117.7598°W)
Time: 23:16:20
(UTC+00:00)

SJ 16-02 - Pass Details

Date: 15 November 2025
Orbit: 585 x 594 km, 75.0° (Epoch: 13 December)

Event Time Altitude Azimuth Distance (km) Brightness Sun altitude
Rises 03:21:26 0° 229° (SW) 2,822 5.4 -31.8°
Reaches altitude 10° 03:24:11 10° 247° (WSW) 1,925 4.6 -32.4°
Maximum altitude 03:27:16 19° 294° (WNW) 1,426 3.8 -33.1°
Enters shadow 03:27:52 19° 305° (NW) 1,448 3.7 -33.2°
